Montgomery, AL

6:30 AM CDT on August 24, 2016 (GMT -0500)
Maxwell Air Force Base

Weather History for KMXF - February, 2014

Change the Weather History Date:

Sunday, February 9, 2014

  Actual Average Record
Temperature  
Mean Temperature 55 °F -  
Max Temperature 75 °F 59 °F 80 °F (2001)
Min Temperature 35 °F 40 °F 27 °F (2011)
Degree Days  
Heating Degree Days 10    
Growing Degree Days 5 (Base 50)    
Moisture  
Dew Point 43 °F    
Average Humidity 87    
Maximum Humidity 100    
Minimum Humidity 49    
Precipitation  
Precipitation 0.00 in - - ()
Sea Level Pressure  
Sea Level Pressure 30.14 in    
Wind  
Wind Speed 1 mph (SW)    
Max Wind Speed 8 mph    
Max Gust Speed -    
Visibility 7 miles    
Events      
Averages and records for this station are not official NWS values.
T = Trace of Precipitation, MM = Missing Value Source: NWS Daily Summary

Daily Weather History Graph

Daily Weather History Graph

Search for Another Location

Airport or City:

Trip Planner

Search our weather history database for the weather conditions in past years. The results will help you decide how hot, cold, wet, or windy it might be!

Date:

Astronomy

Feb. 09, 2014 Rise Set
Actual Time 6:33 AM CST 5:26 PM CST
Civil Twilight 6:08 AM CST 5:51 PM CST
Nautical Twilight 5:39 AM CST 6:20 PM CST
Astronomical Twilight 5:10 AM CST 6:49 PM CST
Moon 1:11 PM CST (2/9) 2:32 AM CST (2/9)
Length of Visible Light 11h 43m
Length of Day
10h 52m
Waxing Gibbous, 77% of the Moon is Illuminated
Feb 9
Waxing Gibbous
Feb 14
Full
Feb 22
Last Quarter
Mar 1
New
Mar 8
First Quarter

Hourly Weather History & Observations

Time (CST) Temp. Dew Point Humidity Pressure Visibility Wind Dir Wind Speed Gust Speed Precip Events Conditions
12:58 AM 37.6 °F 36.0 °F 94% 30.15 in 10.0 mi ESE 1.2 mph - N/A   Clear
1:58 AM 39.2 °F 38.5 °F 97% 30.14 in 10.0 mi Calm Calm - N/A   Mostly Cloudy
2:58 AM 39.6 °F 38.5 °F 96% 30.14 in 10.0 mi Calm Calm - N/A   Overcast
3:58 AM 37.8 °F 37.4 °F 99% 30.14 in 8.0 mi ESE 1.2 mph - N/A   Clear
4:43 AM 37.4 °F 35.6 °F 93% 30.13 in 2.0 mi Calm Calm - N/A   Clear
4:48 AM 35.6 °F 35.6 °F 100% 30.13 in 1.0 mi Calm Calm - N/A   Clear
4:53 AM 35.6 °F 35.6 °F 100% 30.13 in 1.2 mi Calm Calm - N/A   Clear
4:58 AM 37.4 °F 37.4 °F 100% 30.14 in 2.5 mi Calm Calm - N/A   Clear
5:03 AM 37.4 °F 37.4 °F 100% 30.13 in 1.2 mi Calm Calm - N/A   Clear
5:08 AM 35.6 °F 35.6 °F 100% 30.14 in 1.0 mi Calm Calm - N/A   Clear
5:13 AM 35.6 °F 35.6 °F 100% 30.14 in 2.5 mi Calm Calm - N/A   Clear
5:18 AM 35.6 °F 35.6 °F 100% 30.14 in 2.0 mi Calm Calm - N/A   Scattered Clouds
5:23 AM 35.6 °F 35.6 °F 100% 30.14 in 2.5 mi Calm Calm - N/A   Scattered Clouds
5:28 AM 35.6 °F 35.6 °F 100% 30.14 in 7.0 mi Calm Calm - N/A   Scattered Clouds
5:38 AM 35.6 °F 35.6 °F 100% 30.15 in 2.5 mi Calm Calm - N/A   Partly Cloudy
5:43 AM 37.4 °F 35.6 °F 93% 30.15 in 1.5 mi Calm Calm - N/A   Partly Cloudy
5:48 AM 37.4 °F 35.6 °F 93% 30.16 in 2.5 mi Calm Calm - N/A   Partly Cloudy
5:53 AM 37.4 °F 37.4 °F 100% 30.16 in 7.0 mi West 2.3 mph - N/A   Partly Cloudy
5:58 AM 38.3 °F 37.9 °F 99% 30.17 in 7.0 mi WNW 2.3 mph - N/A   Scattered Clouds
6:08 AM 50.0 °F 48.2 °F 94% 30.16 in 2.0 mi West 2.3 mph - N/A   Mostly Cloudy
6:13 AM 66.2 °F 66.2 °F 100% 30.16 in 1.5 mi WNW 2.3 mph - N/A   Mostly Cloudy
6:18 AM 66.2 °F 66.2 °F 100% 30.17 in 2.0 mi Calm Calm - N/A   Overcast
6:23 AM 75.2 °F 73.4 °F 94% 30.17 in 4.0 mi Calm Calm - N/A   Overcast
6:58 AM 73.9 °F 73.8 °F 99% 30.17 in 10.0 mi North 1.2 mph - N/A   Mostly Cloudy
7:58 AM 43.2 °F 42.6 °F 98% 30.20 in 10.0 mi NW 2.3 mph - N/A   Mostly Cloudy
8:58 AM 46.6 °F 40.6 °F 80% 30.21 in 10.0 mi Calm Calm - N/A   Mostly Cloudy
9:58 AM 52.9 °F 41.4 °F 65% 30.21 in 10.0 mi Variable 3.5 mph - N/A   Overcast
10:58 AM 58.5 °F 41.9 °F 54% 30.19 in 10.0 mi SSE 5.8 mph - N/A   Scattered Clouds
11:58 AM 60.6 °F 43.3 °F 53% 30.15 in 10.0 mi SSE 8.1 mph - N/A   Clear
12:58 PM 61.5 °F 43.3 °F 51% 30.11 in 10.0 mi Variable 6.9 mph - N/A   Clear
1:58 PM 62.8 °F 44.2 °F 51% 30.09 in 10.0 mi SW 5.8 mph - N/A   Clear
2:58 PM 64.0 °F 44.2 °F 49% 30.08 in 10.0 mi SW 6.9 mph - N/A   Clear
3:58 PM 64.4 °F 44.6 °F 49% 30.07 in 10.0 mi South 5.8 mph - N/A   Clear
4:58 PM 63.0 °F 44.4 °F 51% 30.09 in 10.0 mi South 4.6 mph - N/A   Clear
5:58 PM 56.8 °F 45.1 °F 65% 30.09 in 10.0 mi SW 2.3 mph - N/A   Clear
6:58 PM 53.4 °F 45.7 °F 75% 30.10 in 10.0 mi WSW 3.5 mph - N/A   Partly Cloudy
7:58 PM 51.6 °F 45.7 °F 80% 30.11 in 10.0 mi West 2.3 mph - N/A   Clear
8:58 PM 45.9 °F 43.2 °F 90% 30.11 in 10.0 mi Calm Calm - N/A   Clear
9:58 PM 43.5 °F 41.9 °F 94% 30.10 in 10.0 mi SE 2.3 mph - N/A   Clear
10:58 PM 45.0 °F 43.3 °F 94% 30.10 in 10.0 mi Calm Calm - N/A   Clear
11:58 PM 44.4 °F 43.9 °F 98% 30.08 in 9.0 mi Calm Calm - N/A   Clear